Regional Weather Roundup
Issued by NWS Wakefield, VA

Home | Current Version | Previous Version | Graphics & Text | Print | Product List | Glossary On
Versions: 1 2 3 4 5 6 7 8 9 10 11 12 13 14 15 16 17 18 19 20 21 22 23 24 25 26 27 28 29 30 31 32 33 34 35 36 37 38 39 40 41 42 43 44 45 46 47 48 49 50
000
ASUS41 KAKQ 012315
RWRAKQ

REGIONAL WEATHER ROUNDUP
NATIONAL WEATHER SERVICE WAKEFIELD VA
700 PM EDT SUN MAY 01 2016

Note: "fair" indicates few or no clouds below 12,000 feet with no
significant weather and/or obstructions to visibility. * = Denotes
station may not report precipitation (e.g., rain,snow,etc.),
thunder or fog.

VAZ042-051-052>054-056-020000-
NORTHERN VIRGINIA

CITY           SKY/WX    TMP DP  RH WIND       PRES   REMARKS
WASH NATIONAL  CLOUDY    58  55  90 E7        30.02R
DULLES         CLOUDY    58  55  90 SE6       30.00S
FORT BELVOIR   CLOUDY    58  55  91 VRB1      30.00S
QUANTICO       CLOUDY    60  57  89 NE5       30.00F
FREDERICKSBRG* CLOUDY    63  61  93 SE3       29.97F
STAFFORD*      CLOUDY    58  56  91 NE5       30.02F
WARRENTON      CLOUDY    61  55  79 NE6       29.98F
CULPEPER*      CLOUDY    62  60  92 NE5       29.98F
MANASSAS*      CLOUDY    59  59 100 E6        29.99F
LEESBURG*      CLOUDY    59  59 100 SE7       30.01R
WINCHESTER     FAIR      63  55  77 E5        29.97R
FRONT ROYAL*   FAIR      63  57  82 CALM      29.93F
LURAY*         MOCLDY    64  59  82 NE6       29.94S
$$

VAZ048-049-060>072-079>083-020000-
CENTRAL AND SOUTH CENTRAL VIRGINIA

CITY           SKY/WX    TMP DP  RH WIND       PRES   REMARKS
RICHMOND       CLOUDY    67  64  90 NE3       29.96F
CHESTERFIELD*  CLOUDY    66  54  63 CALM      29.98F
PETERSBURG*    CLOUDY    73  70  91 CALM      29.97F
HANOVER        CLOUDY    63  60  90 E3        29.98F
TAPPAHANNOCK*  PTSUNNY   64  64  99 N3        29.99F
QUINTON*       CLOUDY    67  65  94 E3        29.96F
CHARLOTTSVILLE CLOUDY    66  60  81 E3        29.95F
GORDONSVILLE*  CLOUDY    65  62  87 CALM      29.96S
ORANGE*        CLOUDY    64  63  94 CALM      29.98F
LOUISA*        CLOUDY    68  64  88 CALM      29.95F
BUMPASS*       CLOUDY    63  60  91 CALM      29.97F
FARMVILLE*     CLOUDY    71  67  87 SE3       29.94S
CREWE*         CLOUDY    67  67 100 CALM      29.96S
FORT PICKETT*  NOT AVBL
CHASE CITY*    CLOUDY    73  68  85 CALM      29.97R
CLARKSVILLE*   CLOUDY    73  68  83 CALM      29.96R
SOUTH HILL*    CLOUDY    71  66  83 S6        30.03R
LAWRENCEVILLE* CLOUDY    72  66  81 S6        29.97R
EMPORIA*       CLOUDY    72  64  78 SE6       29.99R
$$

VAZ088>098-020000-
SOUTHEAST VIRGINIA

CITY           SKY/WX    TMP DP  RH WIND       PRES   REMARKS
NORFOLK        FAIR      75  64  68 SW15      29.97F
VIRGINIA BEACH MOCLDY    77  66  68 S9        29.97F
NORFOLK NAVAL  MOCLDY    74  64  71 SW9       29.98F
WEST POINT*    CLOUDY    68  65  90 E3        29.98F
SALUDA*        CLOUDY    62  61  97 CALM      29.98F
NEWPORT NEWS   CLOUDY    72  64  76 SW8       29.97F
LANGLEY AFB    LGT RAIN  73  64  73 SW12      29.97F
FORT EUSTIS    CLOUDY    72  63  74 S5        29.95F
WILLIAMSBURG*  FAIR      70  68  94 CALM      29.98F
HR EXEC AP*    FAIR      73  64  73 SW10G16   29.99F
FRANKLIN*      PTSUNNY   72  64  77 S8        29.97F
US460-WAKEFLD  PTSUNNY   73  64  73 S5        29.96F
$$

VAZ020-022-025-037-045-020000-
WEST CENTRAL AND SOUTHWEST VIRGINIA

CITY           SKY/WX    TMP DP  RH WIND       PRES   REMARKS
STAUNTON*      FAIR      72  63  74 S9        29.94R
WAYNESBORO*    FAIR      68  60  75 MISG      29.94S
HOT SPRINGS VA FAIR      65  60  82 S8        30.04R
LYNCHBURG      FAIR      72  64  76 S10       29.96R
DANVILLE       FAIR      74  66  76 VRB5      29.96S
SOUTH BOSTON*  FAIR      74  68  80 S5        29.96S
MARTINSVILLE   FAIR      69  63  80 CALM      30.00S
ROANOKE        PTSUNNY   74  64  71 SE13      29.96R
BLACKSBURG     FAIR      75  61  62 S7        30.00R
DUBLIN*        PTSUNNY   77  62  61 S15       29.99R
MARION*        FAIR      73  59  61 W7        30.02S
HILLSVILLE*    FAIR      65  62  88 S7        30.02R
RICHLANDS*     FAIR      73  65  76 SW5       30.00R
WISE*          PTSUNNY   72  54  53 S7        30.01R
ABINGDON*      FAIR      75  62  62 W6        29.98S
$$

MDZ021>025-VAZ099-100-020000-
SOUTHERN MARYLAND AND THE DELMARVA PENINSULA

CITY           SKY/WX    TMP DP  RH WIND       PRES   REMARKS
PATUXENT RIVER CLOUDY    57  55  93 E6        30.00F FOG
BAY BRIDGE APT NOT AVBL
LEONARDTOWN    CLOUDY    55  54  94 E3        30.02S
DOVER          CLOUDY    54  54 100 E6        30.02F FOG
GEORGETOWN     CLOUDY    53  52  96 E5        30.03F FOG
EASTON         CLOUDY   N/A N/A N/A E5        30.06F FOG
CAMBRIDGE      CLOUDY    54  54 100 CALM      30.02S
SALISBURY      LGT RAIN  57  56  96 E5        30.01F FOG
OCEAN CITY     CLOUDY    55  53  93 NE3       30.02S
WALLOPS ISLAND CLOUDY    61  58  90 CALM      30.01F
ACCOMACK*      FAIR     N/A N/A N/A SE3       29.99F
$$

NCZ012>017-030>032-020000-
NORTH CENTRAL AND EASTERN NORTH CAROLINA

CITY           SKY/WX    TMP DP  RH WIND       PRES   REMARKS
ROANOKE RAPIDS MOCLDY    72  64  78 S9        29.98S
RALEIGH        CLOUDY    74  66  76 S10       29.99F
ELIZABETH CITY CLOUDY    72  65  78 S9        30.00F
AHOSKIE*       MOSUNNY   71  64  80 S5        29.99F
EDENTON*       CLOUDY    73  67  83 S7        30.00F
CURRITUCK*     CLOUDY    74  65  74 SW8       30.00F
KILL DEVIL HLS CLOUDY    73  65  77 S3        30.00F
MANTEO         NOT AVBL
CAPE HATTERAS  MOCLDY    69  66  90 S10       30.04F
TARBORO*       FAIR      74  65  74 S6        30.00S
GOLDSBORO      CLOUDY    73  72  94 S8        29.99S
WASHINGTON     CLEAR     72  65  79 S7        30.01S
GREENVILLE     SUNNY     72  66  83 S12       30.02S
NEW BERN       CLOUDY    72  65  78 S9        30.03F
WILMINGTON     CLOUDY    72  68  87 S8        30.04F
$$

VAZ048-020000-
ELSEWHERE

CITY           SKY/WX    TMP DP  RH WIND       PRES   REMARKS
HARRISBURG PA  DRIZZLE   52  50  93 NE5       30.03S FOG
BALTIMORE      CLOUDY    54  53  97 E7        30.01F
ANNAPOLIS      CLOUDY    55  54  96 E7        30.02S FOG
ANDREWS AFB    CLOUDY    55  54  96 E5        30.01S FOG
PHILADELPHIA   LGT RAIN  53  50  89 NE6       30.07S FOG
HENDERSON NC   CLOUDY    73  65  77 S8        29.98S
GREENSBORO     CLOUDY    75  65  70 S10       29.98R
ROCKY MOUNT    CLOUDY    73  65  75 S7        29.99S
$$

VAZ100-020000-
MARINE

STATION/POSITION TIME  TEMP    WIND        PRES    WAVE   SWELL
                       AIR SEA DIR/SP/G            HT/PER HT/PER
                 (UTC) (F)     (DEG/KT/KT) (MB)    (FT/S) (FT/S)
BRANDYWINE LGT   2200   52      80/  8/  9 1017.1F
CAPE MAY NJ      2200   52 57   80/  5/  8 1016.8F
LEWES DE         2200   53 55   90/  8/  9 1017.0F
15NM E FENWICK I 2250   52 51              1016.7F   3/ 8
OCEAN-CITY-INLET 2200   54 54   60/  3/  5 1016.0F
WACHAPREAGUE VA  2200   61 60  180/  5/  5 1015.7F
THOMAS POINT MD  2300   54 57   90/  7/  8 1017.7F
GOOSES REEF MD   2300   57 57  100/  6/  6 1017.2F   1/ 3
COVE POINT MD    2200   56     140/  5/  6 1016.9S
SOLOMONS ISLAND  2200   57 59   90/  5/  6   N/A
BISHOPS HEAD MD  2200   59 58  100/  3/  4 1015.6F
PINEY POINT MD   2206           80/  3/  3   N/A
POTOMAC MD       2300   59 59  130/  4/  4 1014.7F   1
CAMBRIDGE MD     2200   56 60   80/  5/  6 1015.9R
LEWISETTA VA     2200   60 60   80/  3/  4 1015.6F
RAPPAHANNOCK LGT 2200          140/  2/  2 1016.5F
STINGRAY PT      2300   60 60  130/  6/  6 1015.6F   1
YORK RVR RNG VA  2200   62     100/  8/  9 1014.9F
YORKTOWN VA      2200   62 61   70/  9/ 10 1015.3F
JAMESTOWN VA     2300   70 66  130/  2/  2   N/A     0
DOMINION TERM VA 2200   70     220/ 12/ 14 1015.4F
KIPTOPEKE VA     2200      60  180/  9/  9   N/A
CHES BAY BRIDGE  2200   72 60  200/ 18/ 21 1014.9F
CAPE HENRY VA    2200   66     140/  8/ 10   N/A
CHESAPEAKE LGHT  2200   62     180/ 16/ 17 1016.3F
WILLOUBY STN VA  2200   74     210/ 15/ 17 1016.3F
CAPE HENRY BUOY  2212      56                N/A     3/ 9
CAPE CHARLES BUO 2226      57                N/A     3/ 9   3/ 9
OFFSHORE WE BUOY 2221      54                N/A     4/11   3/11
64NM E OF VA BCH 2250   60 53  190/ 14/ 14 1016.2F   4/ 8   3/ 8
DUCK PIER NC     2200   72 66  190/ 11/ 15 1016.0F
44100 DUCK FRF   2224      55                N/A     4/10   2/11
44056 DUCK FRF   2211      59                N/A     3/ 9   2/11
OREGON INLET NC  2200   70 64  170/ 13/ 17 1016.8F
HATTERAS NC      2200   71 67  170/  9/ 12 1017.4F
DIAMOND SHLS NC  2250   74 74  180/ 16/ 17 1017.4F   4/ 9   3/ 9
CAPE LOOKOUT NC  2300   70     180/ 12/ 13 1017.1F
$$
 C1F1C2F2C3F3C4F4C5F5C6F6C7F7C8M1C9!


USA.gov is the U.S. government's official web portal to all federal, state and local government web resources and services.